TimeEDT,TemperatureF,Dew PointF,Humidity,Sea Level PressureIn,VisibilityMPH,Wind Direction,Wind SpeedMPH,Gust SpeedMPH,PrecipitationIn,Events,Conditions,WindDirDegrees,DateUTC
12:56 AM,73.9,71.1,91,30.10,10.0,South,4.6,-,N/A,,Overcast,190,2013-07-20 04:56:00
1:56 AM,73.9,71.1,91,30.10,10.0,South,5.8,-,N/A,,Overcast,180,2013-07-20 05:56:00
2:56 AM,73.9,71.1,91,30.09,10.0,South,5.8,-,N/A,,Overcast,180,2013-07-20 06:56:00
3:56 AM,73.0,70.0,90,30.06,10.0,South,5.8,-,N/A,,Mostly Cloudy,190,2013-07-20 07:56:00
4:56 AM,73.0,69.1,87,30.06,10.0,South,3.5,-,N/A,,Mostly Cloudy,190,2013-07-20 08:56:00
5:56 AM,73.0,70.0,90,30.07,10.0,Calm,Calm,-,N/A,,Mostly Cloudy,0,2013-07-20 09:56:00
6:56 AM,73.9,71.1,91,30.08,10.0,Calm,Calm,-,N/A,,Mostly Cloudy,0,2013-07-20 10:56:00
7:56 AM,75.0,71.1,87,30.10,10.0,Calm,Calm,-,N/A,,Mostly Cloudy,0,2013-07-20 11:56:00
8:56 AM,77.0,73.0,88,30.11,10.0,Calm,Calm,-,N/A,,Overcast,0,2013-07-20 12:56:00
9:56 AM,79.0,72.0,79,30.10,10.0,South,6.9,-,N/A,,Mostly Cloudy,190,2013-07-20 13:56:00
10:56 AM,82.9,73.0,72,30.10,10.0,South,9.2,-,N/A,,Mostly Cloudy,190,2013-07-20 14:56:00
11:56 AM,84.9,73.0,67,30.10,10.0,SW,6.9,-,N/A,,Mostly Cloudy,220,2013-07-20 15:56:00
12:56 PM,87.1,72.0,61,30.09,10.0,SW,8.1,-,N/A,,Mostly Cloudy,220,2013-07-20 16:56:00
1:56 PM,86.0,71.1,61,30.06,10.0,WSW,9.2,-,N/A,,Mostly Cloudy,240,2013-07-20 17:56:00
2:56 PM,86.0,72.0,63,30.05,10.0,SSW,10.4,-,N/A,,Mostly Cloudy,210,2013-07-20 18:56:00
3:03 PM,82.4,73.4,74,30.05,1.8,WSW,17.3,21.9,0.00,Rain,Light Rain,240,2013-07-20 19:03:00
3:19 PM,78.8,71.6,78,30.06,5.0,SW,6.9,-,0.22,Rain-Thunderstorm,Light Thunderstorms and Rain,230,2013-07-20 19:19:00
3:38 PM,73.4,69.8,88,30.08,1.0,WSW,13.8,38.0,0.24,Rain,Heavy Rain,240,2013-07-20 19:38:00
3:49 PM,71.6,69.8,94,30.08,1.0,SSW,8.1,-,0.40,Rain-Thunderstorm,Heavy Thunderstorms and Rain,210,2013-07-20 19:49:00
3:56 PM,71.1,70.0,96,30.07,1.0,SSW,4.6,-,0.47,Rain-Thunderstorm,Heavy Thunderstorms and Rain,210,2013-07-20 19:56:00
4:04 PM,71.6,69.8,94,30.06,8.0,WSW,4.6,-,0.06,Rain-Thunderstorm,Light Thunderstorms and Rain,250,2013-07-20 20:04:00
4:11 PM,71.6,69.8,94,30.05,5.0,West,3.5,-,0.06,Rain-Thunderstorm,Light Thunderstorms and Rain,270,2013-07-20 20:11:00
4:31 PM,71.6,69.8,94,30.05,10.0,West,6.9,-,0.07,Rain,Light Rain,270,2013-07-20 20:31:00
4:56 PM,73.0,70.0,90,30.06,10.0,West,4.6,-,0.08,Rain,Light Rain,260,2013-07-20 20:56:00
5:56 PM,75.0,71.1,87,30.04,10.0,Calm,Calm,-,0.00,,Overcast,0,2013-07-20 21:56:00
6:56 PM,75.0,72.0,90,30.05,10.0,South,3.5,-,N/A,,Overcast,170,2013-07-20 22:56:00
7:56 PM,75.0,72.0,90,30.06,10.0,SE,10.4,-,N/A,,Overcast,130,2013-07-20 23:56:00
8:56 PM,73.9,72.0,93,30.07,10.0,SSE,3.5,-,N/A,,Overcast,160,2013-07-21 00:56:00
9:56 PM,75.0,72.0,90,30.06,10.0,Calm,Calm,-,N/A,,Overcast,0,2013-07-21 01:56:00
10:56 PM,75.0,72.0,90,30.07,10.0,Calm,Calm,-,N/A,,Overcast,0,2013-07-21 02:56:00
11:56 PM,75.0,73.0,94,30.08,10.0,SW,3.5,-,N/A,,Mostly Cloudy,220,2013-07-21 03:56:00